RH
60 51 60 79 100 94 74 82 97 100 86 100 90 84 78 76 62 58 52 51 43 34 27 32 32 31 38 44 43 48 40 35 36 36 33 31 36 37 34 34 32 33 32 35 30 33 28 28 32 33 37 34 33 33
84 44 62 71 100 100 95 68 78 99 100 88 100 100 99 95 91 83 67 71 75 52 36 29 28 28 26 41 55 58 63 72 55 67 76 73 73 50 51 43 41 48 72 91 82 72 68 60 61 50 44 47 51 56
66 50 66 62 95 96 100 100 70 70 100 100 90 100 100 100 100 96 96 90 91 79 64 63 41 37 36 32 39 67 83 44 65 82 59 58 51 47 49 60 48 59 70 45 39 42 44 39 40 42 37 40 48 50
100 95 80 75 78 91 88 98 99 75 79 100 100 97 100 100 100 100 100 100 100 100 90 100 90 48 46 66 39 40 84 94 53 38 38 39 42 48 53 56 48 48 46 45 51 57 69 63 58 53 52 51 62 71
100 92 98 66 69 57 62 79 91 95 78 84 100 100 100 100 100 100 100 100 100 100 100 100 100 100 82 65 55 45 49 53 54 78 96 86 39 45 50 59 50 58 62 78 83 72 82 76 74 78 92 100 100 100
100 99 100 76 67 59 59 70 86 90 87 81 98 100 100 100 100 100 100 100 100 100 100 100 100 100 100 100 94 78 92 68 54 55 68 66 49 51 66 85 68 71 68 69 100 100 100 100 100 100 100 100 100 100
100 99 100 100 100 61 66 79 63 82 93 80 81 89 96 100 100 100 100 100 100 100 100 100 100 100 100 100 100 100 96 100 99 92 98 93 85 92 94 55 51 70 70 91 100 100 100 100 100 100 98 91 89 90
100 100 100 100 100 92 79 73 68 56 66 67 64 76 83 98 100 100 100 100 93 92 88 96 100 100 100 92 97 92 91 79 91 94 99 100 100 82 57 50 74 98 100 100 100 100 100 100 100 100 100 96 78 71
100 100 100 100 100 84 100 92 73 66 60 72 68 61 61 84 98 100 100 100 100 98 93 87 83 92 94 82 76 75 69 62 72 79 59 70 86 90 98 100 100 100 100 100 100 100 100 100 98 97 93 82 78 69
100 100 100 99 100 99 99 100 93 96 77 76 80 61 62 66 74 95 100 100 96 100 100 100 100 100 100 100 100 95 79 80 93 100 100 100 100 100 100 100 100 100 100 100 100 100 100 97 82 77 75 68 58 57
36 36 39 59 86 100 100 100 100 100 98 78 70 67 64 68 73 75 86 96 100 94 98 100 100 100 100 100 100 100 100 100 100 100 100 100 100 100 100 97 91 89 91 92 87 76 68 68 76 67 66 66 72 91
34 36 40 71 82 92 100 100 100 100 100 98 84 100 81 62 77 68 56 73 99 100 100 100 100 99 100 100 100 100 100 100 100 100 100 100 100 100 100 100 100 100 96 91 89 85 81 82 98 95 91 85 82 92
28 33 35 39 64 100 99 98 100 100 100 100 100 99 82 66 65 65 63 64 88 100 100 100 99 100 100 93 85 84 81 80 81 82 91 100 100 96 90 91 90 86 88 83 78 85 94 88 97 96 100 99 100 100
22 24 30 34 36 38 40 45 52 94 100 100 100 82 77 59 47 51 81 100 98 100 94 95 100 100 100 100 100 99 86 76 69 86 100 100 100 100 95 90 86 82 77 83 95 94 98 100 99 96 98 92 87 78
18 20 23 28 31 33 33 32 32 34 38 49 62 59 46 63 51 54 51 72 91 94 98 93 84 88 98 100 98 97 97 88 96 96 84 81 90 81 71 74 92 98 100 100 100 98 98 90 93 95 84 73 59 57
14 18 22 24 26 26 25 24 25 27 30 31 33 34 37 48 56 55 65 86 100 94 82 85 92 91 83 79 92 89 90 87 84 81 89 85 84 93 93 99 100 94 88 96 94 98 100 96 88 67 57 63 55 47
11 16 20 22 23 24 24 21 20 21 22 22 22 23 25 28 40 44 37 43 55 55 62 71 68 90 72 85 96 99 99 84 84 89 84 86 88 88 77 75 81 91 90 83 80 83 71 65 64 53 54 40 32 32
11 13 14 18 19 20 22 21 19 17 17 17 17 18 19 20 22 24 26 26 30 41 69 88 82 62 60 61 72 75 71 82 72 69 70 73 67 56 61 61 54 59 63 64 61 57 54 52 48 28 20 22 22 23
11 12 12 12 13 16 19 20 20 18 17 16 16 17 17 18 17 18 18 18 21 22 23 26 26 28 34 47 50 65 70 59 53 53 61 62 58 53 45 44 48 50 49 55 46 42 38 21 19 20 22 24 26 27
12 12 12 12 11 11 13 15 17 16 16 17 17 17 17 17 17 18 19 20 20 19 18 18 18 19 24 29 33 37 42 42 42 53 56 49 43 37 33 35 37 36 28 19 17 17 19 22 23 25 27 26 24 24
12 11 10 10 11 9 10 11 12 13 16 17 18 18 17 18 17 16 17 18 18 18 18 18 17 17 19 20 22 25 27 28 25 22 22 18 16 17 17 16 16 16 17 19 21 24 26 27 28 27 27 26 23 20
10 10 10 10 9 9 9 10 11 12 12 14 15 16 17 18 17 17 18 17 18 19 19 18 17 16 16 15 15 15 14 14 14 14 14 15 15 15 16 18 19 20 22 24 25 28 28 27 28 25 22 21 19 17
8 9 11 11 10 9 9 10 10 11 12 13 14 14 15 16 17 18 18 19 19 19 17 16 15 15 14 14 14 14 13 13 14 15 15 15 16 18 20 23 23 24 26 29 29 28 26 26 23 19 18 17 16 14
8 8 9 10 11 11 11 11 11 11 12 12 13 14 15 17 18 17 17 19 18 17 16 14 14 13 12 13 13 12 13 13 13 14 15 16 17 19 22 24 26 27 25 25 24 21 21 20 18 15 14 15 11 11
9 8 8 9 10 11 12 12 12 12 12 13 14 14 15 17 16 17 18 18 16 14 12 12 12 11 12 12 12 13 13 12 12 14 15 18 20 23 24 24 24 25 23 21 21 19 16 14 13 12 12 10 8 6
9 9 9 8 8 10 12 12 12 12 12 12 12 12 12 12 13 15 16 12 10 10 11 11 12 13 13 12 12 13 12 12 14 17 20 20 21 21 22 22 22 25 23 19 16 13 12 11 9 8 7 6 5 5
10 9 9 9 9 9 10 11 13 14 13 12 12 12 13 13 15 15 12 11 11 12 12 12 12 12 12 12 14 14 14 15 17 19 24 25 22 21 21 19 19 18 17 15 13 11 8 7 6 6 6 5 4 3
9 9 9 9 9 9 9 9 11 12 13 14 15 15 14 15 15 13 12 12 12 12 12 12 12 12 13 14 16 17 18 20 23 22 22 23 23 24 20 15 13 11 10 10 8 7 6 6 5 5 3 3 3 3
12 11 10 9 10 10 10 10 10 11 12 13 14 15 16 16 15 14 14 13 13 13 13 13 14 15 17 20 22 25 26 22 20 20 19 20 20 16 12 10 9 7 5 5 6 6 5 4 3 3 3 3 3 3
10 10 11 11 11 10 9 9 10 10 11 11 12 13 14 14 15 16 16 16 15 14 14 16 17 18 22 21 20 19 19 16 13 13 13 13 12 12 10 8 6 5 5 6 6 4 3 2 3 3 3 4 4 4
12 12 12 12 12 11 11 12 12 12 12 11 11 11 11 12 12 12 12 10 9 10 12 13 14 14 13 13 13 12 12 9 9 9 10 10 10 9 7 7 6 6 5 3 3 3 3 3 3 3 3 4 4 4
9 10 10 10 10 11 12 13 13 13 13 13 12 12 12 12 13 12 9 8 10 13 13 12 12 12 10 9 9 9 10 10 10 10 9 8 8 7 7 5 4 3 3 3 4 3 3 3 3 3 3 4 4 4
9 9 9 9 9 9 9 10 10 11 10 10 10 11 11 11 12 10 8 9 11 12 11 12 11 10 9 9 9 10 10 10 9 8 8 6 5 4 3 3 3 4 3 4 5 4 4 4 4 4 4 4 4 4
Wind_Speed
76 64 59 62 58 60 56 51 46 40 36 27 39 36 31 26 24 20 17 11 5 3 2 0 4 7 9 9 9 11 12 14 13 14 14 13 14 13 14 12 9 12 11 11 9 7 4 3 5 6 8 11 13 16
80 66 61 62 61 59 63 59 52 48 42 37 32 43 36 34 30 27 23 19 14 10 5 3 2 2 0 4 6 8 8 5 2 8 9 7 9 9 8 5 4 4 4 6 8 10 10 11 13 16 19 20 21 23
89 75 69 63 64 64 61 63 62 56 49 44 40 36 42 42 37 33 31 26 23 19 16 13 9 7 6 7 4 3 7 8 4 7 6 7 6 6 4 3 4 3 6 10 13 14 15 14 15 18 22 25 27 29
85 85 77 71 69 64 66 64 64 64 60 53 48 44 41 41 47 40 39 35 32 28 23 22 20 19 15 13 13 11 11 13 12 13 14 13 13 10 11 12 11 10 14 15 17 19 22 24 25 29 32 31 31 34
101 94 89 84 73 68 71 69 68 68 67 64 58 51 50 47 44 42 48 46 42 40 35 35 35 29 26 25 22 18 19 18 19 20 20 23 21 21 22 25 24 20 24 26 29 31 33 35 38 40 37 36 38 41
106 103 100 93 91 82 71 74 73 69 71 71 67 62 57 56 50 48 43 43 45 41 42 44 42 37 32 32 33 32 30 27 28 28 27 28 26 26 32 35 33 32 32 33 36 39 42 41 40 42 43 45 48 56
115 111 105 102 98 88 81 77 79 77 76 75 72 71 68 62 60 55 52 51 48 42 39 39 40 44 44 43 41 42 43 40 35 34 36 34 31 33 39 41 37 39 40 35 42 43 44 46 48 50 55 60 64 68
125 121 115 110 105 102 96 87 80 79 79 75 77 78 76 72 67 65 59 59 57 54 51 46 45 49 49 49 48 46 45 45 43 42 44 43 41 40 44 42 40 40 42 46 49 52 57 58 59 61 65 69 74 77
127 126 122 118 118 108 102 91 86 81 79 79 79 82 81 77 76 75 71 65 62 59 55 53 55 56 55 55 53 52 51 50 48 48 48 46 48 50 47 44 46 50 54 55 58 62 64 67 68 72 77 81 83 85
135 136 133 126 119 115 111 105 100 94 89 87 86 80 77 85 85 84 80 78 72 66 60 59 60 59 61 61 61 61 60 57 52 53 54 51 52 57 55 57 60 61 63 66 69 71 74 78 81 84 86 88 90 92
112 115 115 116 116 117 114 107 106 102 104 100 92 82 80 86 86 90 90 81 78 73 69 67 71 74 73 70 69 68 64 63 61 61 63 60 61 67 68 69 70 71 73 77 79 82 86 87 90 92 94 96 98 99
107 108 109 109 109 113 115 113 111 109 107 100 95 95 93 94 89 95 91 86 78 78 76 80 83 82 81 81 79 76 75 74 70 69 69 67 71 74 77 77 79 81 83 84 85 87 90 92 94 97 100 102 103 106
100 105 106 108 109 111 111 110 111 111 109 107 107 105 101 102 99 87 87 84 84 81 83 88 88 87 87 88 87 86 85 83 82 78 75 77 81 83 84 84 86 88 88 90 92 94 96 99 102 105 106 109 111 114
97 98 100 105 108 110 109 110 111 110 111 110 111 111 108 101 92 79 77 79 88 89 94 94 96 95 93 93 91 92 91 90 88 86 85 87 88 88 88 90 93 93 94 95 97 101 103 104 106 109 113 116 119 124
96 94 95 97 100 103 107 108 109 110 111 113 115 115 103 96 88 84 86 89 92 96 96 100 104 103 103 104 100 99 98 96 93 95 97 97 95 96 98 99 96 96 98 102 104 105 107 111 114 116 120 126 128 125
95 93 92 95 98 101 106 109 108 107 110 112 115 111 96 94 92 89 90 96 104 106 107 107 105 107 110 107 105 105 104 103 104 102 100 100 99 100 101 102 105 108 110 110 112 114 117 120 123 127 129 126 127 124
89 90 97 98 100 103 108 108 106 106 106 107 103 94 91 86 88 92 96 98 106 108 109 111 110 108 111 111 111 109 109 112 113 113 112 108 107 108 110 110 111 114 116 117 119 122 127 126 126 124 124 118 115 117
84 92 98 102 102 103 103 102 103 102 102 97 94 88 90 88 89 92 94 96 99 102 106 110 113 113 112 111 111 116 120 121 119 117 116 114 116 117 115 117 118 117 119 122 125 125 120 121 122 115 114 115 113 113
83 86 94 99 100 99 100 100 99 98 96 91 87 85 83 84 85 88 93 94 94 96 100 102 105 103 106 110 111 114 117 117 117 116 118 120 117 117 114 114 115 116 116 117 115 115 116 114 112 110 108 107 106 105
78 83 91 96 97 96 98 97 95 96 95 91 86 84 83 84 84 88 93 95 94 96 99 100 100 99 101 104 105 106 106 110 112 111 111 111 108 108 110 109 110 110 111 110 107 105 104 103 103 101 102 103 104 104
77 82 88 88 89 89 91 91 94 94 92 90 85 86 87 88 89 88 90 92 93 95 95 96 98 99 100 100 98 100 100 102 103 101 101 101 100 102 103 105 104 104 103 100 98 96 96 95 95 99 100 102 105 106
74 77 79 82 84 86 87 86 88 89 88 85 86 89 91 92 92 89 91 93 92 94 96 96 98 101 101 99 99 100 99 97 97 97 97 98 100 99 99 98 96 94 92 92 89 86 88 93 96 97 99 100 102 102
71 73 75 79 79 81 80 82 84 84 84 83 85 88 90 91 91 92 94 95 95 95 97 99 100 98 97 95 94 95 94 91 91 92 93 91 90 91 91 89 89 88 85 85 86 87 88 93 97 97 98 99 100 100
67 70 72 75 76 78 78 78 78 80 79 79 82 84 86 87 90 92 94 95 96 99 100 99 98 96 90 88 90 89 87 87 85 85 85 84 84 84 84 84 83 83 83 82 86 88 91 93 95 95 96 96 96 94
62 65 69 72 73 74 73 75 75 78 79 79 81 84 86 88 90 93 95 97 98 98 95 93 91 87 84 86 86 85 84 81 79 76 78 79 78 77 76 76 78 83 88 82 84 86 89 92 92 92 91 92 88 83
59 62 64 67 69 70 71 72 73 74 77 80 81 83 86 88 91 94 95 93 90 87 86 86 84 84 84 82 80 80 78 74 73 72 74 75 75 73 74 75 75 80 91 84 84 84 86 89 86 84 83 83 80 70
55 57 60 63 64 65 67 69 71 73 74 75 77 79 81 84 89 90 85 83 83 84 84 83 81 78 76 75 76 75 73 73 71 68 70 74 76 77 76 74 76 79 83 84 85 86 83 79 77 76 71 70 68 59
51 54 56 58 60 62 63 66 69 72 73 74 75 77 78 82 83 80 78 76 76 76 75 75 74 73 72 71 69 70 72 71 70 70 71 73 76 78 76 76 76 76 79 82 81 77 73 67 62 59 58 58 58 52
48 50 52 54 56 59 60 63 65 68 70 71 73 75 77 76 75 75 73 73 72 71 71 69 68 66 64 66 67 69 70 71 69 70 70 70 75 79 77 74 74 75 73 71 70 64 57 54 53 49 50 50 47 43
44 44 45 47 48 50 53 56 59 61 61 63 65 67 69 69 68 69 70 70 70 69 68 65 66 65 67 65 67 69 70 68 67 65 66 69 71 72 72 72 70 69 65 61 56 54 50 45 44 42 40 39 38 37
41 41 42 42 44 45 47 49 51 51 53 55 58 59 61 62 62 63 64 65 64 61 61 61 64 63 61 62 62 62 64 62 59 61 63 64 64 65 63 62 61 58 53 49 47 45 44 43 39 35 32 31 29 30
40 41 42 42 42 41 42 43 44 45 46 48 51 53 54 54 56 58 59 57 55 57 57 56 57 58 56 57 56 55 56 58 59 61 60 58 55 53 52 50 49 47 44 43 43 42 39 36 32 30 27 26 26 26
35 37 37 38 39 38 37 38 40 43 44 45 46 46 47 48 51 55 56 50 49 50 51 52 53 53 51 50 50 52 53 54 55 52 48 46 45 43 43 43 43 41 39 38 38 36 33 30 29 26 23 23 22 21
Wind_Direction
239 234 235 232 233 236 233 235 237 237 239 232 222 224 223 222 226 230 226 239 244 278 9 199 96 70 67 59 57 52 66 75 80 72 78 80 75 69 68 65 70 89 93 79 81 60 44 5 345 322 315 299 291 288
236 236 234 233 229 235 237 236 236 236 236 238 230 225 226 228 227 232 231 234 232 234 252 255 263 322 213 71 48 46 24 15 100 53 47 80 49 55 58 76 85 81 50 4 349 358 342 328 327 327 332 328 322 316
238 240 239 235 230 231 235 237 238 239 236 237 237 231 231 230 229 231 232 235 241 237 238 240 267 260 277 271 272 323 325 332 348 337 357 342 350 350 355 357 7 349 324 326 327 330 326 329 327 324 322 319 315 314
232 239 241 242 232 234 234 235 238 238 238 238 236 236 232 232 229 232 234 239 244 248 237 238 248 266 275 263 260 253 275 295 293 296 307 308 311 305 310 302 316 326 315 310 310 315 314 313 310 310 312 312 309 306
241 244 241 243 248 241 237 236 236 236 239 240 238 237 237 235 229 232 236 239 242 247 253 253 254 253 259 269 275 268 269 269 275 279 287 291 296 296 294 292 293 303 306 302 302 307 306 307 304 304 306 299 298 300
240 242 243 246 250 249 243 238 238 236 237 238 241 239 240 239 238 237 232 234 239 246 253 257 255 255 257 258 268 274 273 275 279 280 286 284 287 288 287 287 293 298 302 299 296 299 302 302 298 297 298 296 293 295
238 241 241 244 246 248 247 248 240 240 240 239 241 241 239 240 240 239 241 240 237 240 248 253 258 260 262 265 263 270 274 277 272 272 275 277 283 283 284 285 288 286 288 288 295 296 294 296 296 296 294 294 294 295
237 237 240 242 246 249 248 248 245 241 239 240 240 243 241 239 242 241 239 242 242 243 241 244 252 256 256 256 259 263 266 268 270 270 270 272 275 281 275 280 281 286 287 288 289 288 291 292 292 292 294 296 299 301
236 241 241 244 246 245 245 247 245 241 240 245 244 241 239 243 241 244 241 239 242 245 248 249 251 253 257 259 260 260 263 266 265 268 269 270 273 277 275 275 277 278 280 283 284 285 287 290 292 294 296 298 300 301
234 239 243 242 242 243 244 248 247 248 248 247 247 244 240 244 245 242 244 244 241 243 245 247 250 253 257 259 260 263 262 264 264 266 268 270 272 271 271 271 273 275 278 281 285 286 288 291 292 293 295 297 299 301
232 233 237 239 239 242 243 243 247 246 250 246 250 249 242 245 248 247 243 244 246 247 247 249 254 254 253 252 256 259 262 261 263 263 266 267 268 271 273 274 276 278 279 282 284 285 287 290 292 295 295 296 297 298
229 234 235 236 239 241 241 242 245 248 250 250 248 248 248 245 247 243 242 244 249 250 251 250 251 253 256 258 259 260 260 262 264 266 269 274 273 273 274 275 277 279 282 285 287 288 290 292 293 293 294 295 296 295
227 230 232 235 237 239 241 244 247 246 248 249 250 251 248 244 243 242 245 247 250 248 251 253 253 255 258 259 260 261 263 264 266 269 271 272 271 273 275 278 280 282 284 287 289 290 291 292 293 294 293 294 293 294
227 227 229 231 233 236 239 241 243 244 245 246 248 249 247 247 239 240 244 250 250 250 254 255 254 254 255 257 260 262 264 266 268 271 271 272 274 276 277 278 281 282 285 287 288 289 289 289 290 291 293 294 294 295
226 227 227 228 231 234 237 238 239 241 242 243 245 246 244 249 246 243 244 250 253 250 257 258 256 254 256 258 259 262 265 266 267 268 269 271 274 276 279 281 282 282 282 283 284 286 287 288 289 291 292 294 296 297
225 226 227 229 229 231 234 235 237 239 240 241 244 246 244 245 248 250 253 254 256 253 253 254 256 258 257 258 261 263 265 266 266 267 270 272 275 278 278 278 279 280 281 282 283 285 287 289 290 292 294 293 294 296
224 225 227 228 229 230 232 234 236 237 238 241 244 246 246 247 248 251 251 251 251 251 252 254 254 257 259 258 259 262 265 266 267 268 268 269 273 276 275 277 279 280 280 281 283 285 286 289 290 291 292 295 295 295
223 224 227 228 229 230 232 234 237 238 239 241 243 245 246 247 246 247 249 250 250 251 253 255 257 257 257 258 260 262 263 263 265 267 269 270 273 276 277 279 278 278 280 283 285 286 288 289 290 292 293 293 293 293
223 224 227 228 229 230 232 235 237 239 241 242 243 244 245 246 246 248 250 250 251 252 253 255 257 258 259 260 261 263 264 264 266 268 270 271 273 277 279 280 281 282 283 285 286 287 288 290 291 292 293 292 292 293
221 223 226 228 229 229 231 232 236 238 238 240 241 243 244 245 245 246 249 250 251 252 253 255 257 258 260 262 263 264 266 266 268 271 272 272 275 277 279 281 282 282 283 285 287 288 289 291 291 291 290 291 292 292
221 222 226 228 230 231 232 232 235 238 238 240 241 242 242 243 244 245 248 250 251 253 254 256 257 258 260 261 263 265 266 267 270 273 275 276 277 279 280 281 283 284 285 286 288 289 291 290 290 290 291 291 292 294
222 224 226 228 229 230 230 230 232 234 236 237 239 241 242 244 245 246 249 250 251 253 255 255 257 258 259 262 263 265 267 269 271 273 275 277 278 280 282 283 283 284 285 286 289 289 288 287 287 287 289 291 292 295
222 223 224 227 228 231 231 230 231 232 233 234 235 237 240 242 244 246 247 250 252 254 256 257 258 259 260 263 265 266 269 271 272 274 276 278 280 281 282 284 284 286 288 289 289 288 287 287 288 290 291 292 293 293
221 223 224 226 227 229 229 231 232 234 235 235 236 236 237 239 242 244 246 248 250 252 255 257 259 261 263 266 268 269 271 272 275 276 278 279 279 280 281 284 286 287 286 285 284 285 286 287 288 290 290 291 294 297
222 223 224 225 226 228 229 230 230 232 232 232 233 235 236 238 240 242 243 244 248 252 256 259 263 267 268 268 271 272 274 275 277 279 279 278 280 284 286 285 285 284 282 284 285 285 287 287 288 289 293 295 296 297
222 224 226 227 228 227 229 230 231 232 234 235 235 236 237 239 241 242 245 249 254 258 262 264 267 267 268 271 274 275 276 278 279 281 283 284 283 281 280 281 283 285 286 287 287 288 287 288 292 296 297 297 297 301
223 225 227 229 229 229 229 230 232 234 235 237 240 242 243 245 245 248 253 256 258 259 261 263 266 269 271 272 273 276 279 280 280 282 283 282 282 282 282 283 284 284 286 287 288 287 290 296 297 297 298 298 299 304
225 226 227 229 229 230 231 232 232 233 235 237 240 241 243 245 248 252 255 258 259 260 262 264 266 268 270 274 276 277 277 279 281 280 280 282 284 286 285 285 286 286 285 285 286 292 296 297 297 298 297 297 300 304
227 229 230 231 231 232 233 234 235 236 238 238 240 242 245 247 251 254 257 260 262 264 265 266 267 270 274 275 275 276 276 276 277 278 278 281 282 284 286 286 285 284 286 290 294 296 297 297 296 296 297 298 301 303
232 232 232 232 234 236 238 239 240 241 242 244 246 249 251 253 255 257 259 260 262 264 265 268 270 271 272 273 273 273 273 273 274 277 279 279 280 282 283 284 286 288 291 295 296 295 296 296 296 298 296 296 297 297
234 236 238 239 239 238 238 239 241 242 243 245 247 250 252 254 256 258 260 261 262 265 268 271 271 271 271 270 271 271 274 278 280 279 279 280 280 281 283 285 286 290 292 293 293 293 294 296 299 298 298 298 297 295
233 233 235 236 236 236 238 241 245 246 247 248 249 250 252 255 258 261 260 260 263 266 267 268 269 270 269 270 273 276 276 276 275 277 277 279 283 284 284 286 287 289 290 291 292 292 293 297 298 297 297 293 290 292
237 237 238 239 243 244 244 243 241 242 243 245 247 248 250 252 255 257 260 263 264 263 262 263 263 266 271 273 272 271 271 272 273 277 281 282 282 284 286 285 285 286 288 288 288 290 293 292 290 289 289 288 290 289